Tracking 23752 objects as of 23-Oct-2021
HD Live streaming from Space Station
objects crossing your sky now

COSMOS 1375 DEB

Track COSMOS 1375 DEB now!
10-day predictions


NORAD ID: 17807
Int'l Code: 1982-055AZ
Perigee: 939.5 km
Apogee: 1,008.8 km
Inclination: 65.8 °
Period: 104.4 minutes
Semi major axis: 7345 km
RCS: 0.033 m2 (small)
Launch date: June 6, 1982
Source: Commonwealth of Independent States (former USSR) (CIS)
Launch site: PLESETSK MISSILE AND SPACE COMPLEX (PKMTR)

Note: This is SATELLITE DEBRIS
aabbcc
Your satellite tracking list
Your tracking list is empty




NASA's NSSDC Master Catalog

Two Line Element Set (TLE):
1 17807U 82055AZ  21295.57134684  .00000261  00000-0  33179-3 0  9995
2 17807  65.8340  20.0625 0047131  85.8180  28.3576 13.79116190804991
Source of the keplerian elements: AFSPC